TimeCST,TemperatureF,Dew PointF,Humidity,Sea Level PressureIn,VisibilityMPH,Wind Direction,Wind SpeedMPH,Gust SpeedMPH,PrecipitationIn,Events,Conditions,WindDirDegrees,DateUTC
12:53 AM,26.1,21.9,84,30.38,10.0,Calm,Calm,-,N/A,,Clear,0,2013-01-05 06:53:00
1:53 AM,27.0,23.0,85,30.37,10.0,Calm,Calm,-,N/A,,Clear,0,2013-01-05 07:53:00
2:53 AM,27.0,23.0,85,30.38,10.0,Calm,Calm,-,N/A,,Clear,0,2013-01-05 08:53:00
3:53 AM,30.0,27.0,88,30.37,9.0,Calm,Calm,-,N/A,,Overcast,0,2013-01-05 09:53:00
4:53 AM,30.9,27.0,85,30.37,9.0,Calm,Calm,-,N/A,,Overcast,0,2013-01-05 10:53:00
5:53 AM,30.9,28.0,89,30.36,9.0,Calm,Calm,-,N/A,,Overcast,0,2013-01-05 11:53:00
6:53 AM,30.9,28.9,92,30.39,8.0,Calm,Calm,-,N/A,,Overcast,0,2013-01-05 12:53:00
7:53 AM,32.0,28.9,88,30.39,7.0,Calm,Calm,-,N/A,,Overcast,0,2013-01-05 13:53:00
8:53 AM,35.1,30.9,85,30.38,8.0,Calm,Calm,-,N/A,,Overcast,0,2013-01-05 14:53:00
9:53 AM,37.0,30.9,79,30.39,7.0,SW,6.9,-,0.00,,Overcast,230,2013-01-05 15:53:00
10:53 AM,37.9,30.9,76,30.37,10.0,South,6.9,-,0.00,,Overcast,180,2013-01-05 16:53:00
11:53 AM,39.9,30.0,68,30.32,10.0,SSW,8.1,-,N/A,,Overcast,210,2013-01-05 17:53:00
12:53 PM,43.0,30.9,62,30.27,10.0,SW,10.4,-,N/A,,Overcast,220,2013-01-05 18:53:00
1:53 PM,43.0,30.9,62,30.25,10.0,South,10.4,-,N/A,,Overcast,190,2013-01-05 19:53:00
2:53 PM,44.1,33.1,65,30.24,10.0,South,9.2,-,N/A,,Overcast,180,2013-01-05 20:53:00
3:53 PM,43.0,32.0,65,30.23,10.0,South,12.7,-,N/A,,Overcast,180,2013-01-05 21:53:00
4:53 PM,42.1,33.1,70,30.25,10.0,South,4.6,-,N/A,,Overcast,180,2013-01-05 22:53:00
5:53 PM,42.1,34.0,73,30.24,10.0,South,6.9,-,N/A,,Overcast,180,2013-01-05 23:53:00
6:53 PM,39.0,32.0,76,30.25,10.0,SSW,4.6,-,N/A,,Mostly Cloudy,200,2013-01-06 00:53:00
7:53 PM,37.0,30.9,79,30.25,10.0,SW,5.8,-,N/A,,Clear,220,2013-01-06 01:53:00
8:53 PM,37.0,32.0,82,30.25,10.0,South,4.6,-,N/A,,Overcast,190,2013-01-06 02:53:00
9:53 PM,37.0,33.1,86,30.24,10.0,SSW,5.8,-,N/A,,Overcast,200,2013-01-06 03:53:00
10:53 PM,39.0,34.0,82,30.24,10.0,SW,6.9,-,N/A,,Overcast,220,2013-01-06 04:53:00
11:53 PM,37.0,33.1,86,30.23,10.0,SW,5.8,-,N/A,,Mostly Cloudy,220,2013-01-06 05:53:00